Tracking 17264 objects as of 1-September-2015
HD Live streaming from Space Station

IRIDIUM 33 DEB

Track IRIDIUM 33 DEB now!
10-day predictions
IRIDIUM 33 DEB is classified as:


NORAD ID: 34150
Int'l Code: 1997-051ED
Perigee: 698.2 km
Apogee: 793.0 km
Inclination: 86.5 °
Period: 99.6 minutes
Semi major axis: 7116 km
RCS: 0.0227 m2 (small)
Launch date: September 14, 1997
Source: United States (US)

Note: This is SATELLITE DEBRIS
Your satellite tracking list
Your tracking list is empty





NASA's NSSDC Master Catalog

Two Line Element Set (TLE):
1 34150U 97051ED  15243.49337428  .00005007  00000-0  13600-2 0  9994
2 34150 086.4880 240.8754 0066639 318.8306 169.1596 14.46091693341286

Source of the keplerian elements: AFSPC

N2YO: 271